Skip Page Navigation
NASA JPL Caltech
NASA Logo - Jet Propulsion Laboratory + View the NASA Portal
+ Center for Near-Earth Object Studies
JPL Home Earth Solar System Stars & Galaxies Technology
JPL Solar System Dynamics
BODIES ORBITS EPHEMERIDES TOOLS PHYSICAL DATA DISCOVERY FAQ SITE MAP
IMPORTANT: The SSD Announcement email list is now available. Major changes are coming in the near future, including possible hostname and/or URL changes. To be notified of such changes, subscribe to this email list.

Please visit this page for more details.


JPL Small-Body Database Browser
Search: [ help ]  
410364 (2007 VM76)
Classification: Main-belt Asteroid          SPK-ID: 2410364
Ephemeris | Orbit Diagram | Orbital Elements | Mission Design | Physical Parameters | Discovery Circumstances ]

[ show orbit diagram ]
Orbital Elements at Epoch 2458600.5 (2019-Apr-27.0) TDB
Reference: JPL 10 (heliocentric ecliptic J2000)
 Element Value Uncertainty (1-sigma)   Units 
e .1985617144901381 8.23e-08  
a 2.428762232567924 2.5367e-08 au
q 1.946503039580342 2.1183e-07 au
i 4.676058386040755 9.1394e-06 deg
node 63.66770447666468 0.00012384 deg
peri 309.0011063820849 0.00012888 deg
M 33.98299300718188 3.6467e-05 deg
tp 2458469.992625233037
(2018-Dec-17.49262523)
0.00013877 TDB
period 1382.534343169166
3.79
2.166e-05
5.93e-08
d
yr
n .2603913615446085 4.0794e-09 deg/d
Q 2.911021425555507 3.0404e-08 au
  Orbit Determination Parameters
   # obs. used (total)      83  
   data-arc span      5442 days (14.90 yr)  
   first obs. used      2003-09-19  
   last obs. used      2018-08-13  
   planetary ephem.      DE431  
   SB-pert. ephem.      SB431-N16  
   condition code      0  
   norm. resid. RMS      .70593  
   source      ORB  
   producer      Otto Matic  
   solution date      2019-Jul-14 16:06:36  

Additional Information
 Earth MOID = .950464 au 
 Jupiter MOID = 2.55374 au 
 T_jup = 3.477 
[ show covariance matrix ]

Ephemeris | Orbit Diagram | Orbital Elements | Mission Design | Physical Parameters | Discovery Circumstances ]

Physical Parameter Table
Parameter Symbol Value Units Sigma Reference Notes
absolute magnitude H 17.4   n/a MPO455916  

410364 (2007 VM76)          Discovered 2007-Nov-03 by Spacewatch at Kitt Peak
Reference: Last Updated: 2014-10-09
Ephemeris | Orbit Diagram | Orbital Elements | Mission Design | Physical Parameters | Discovery Circumstances ]
ABOUT SSD CREDITS/AWARDS PRIVACY/COPYRIGHT GLOSSARY LINKS
FirstGov 2020-Jan-19 19:27 UT
(server date/time)  
NASA Home Page
Site Manager:   Ryan S. Park
Webmaster  Alan B. Chamberlin